Regional Weather Roundup
Issued by NWS

Home | Current Version | Previous Version | Graphics & Text | Print | Product List | Glossary On
Versions: 1 2 3 4 5 6 7 8 9 10 11 12 13 14 15 16 17 18 19 20 21 22 23 24 25 26 27 28 29 30 31 32 33 34 35 36 37 38 39 40 41 42 43 44 45 46 47 48 49 50
385
ASUS43 KDTX 281401
RWRMI
MICHIGAN HOURLY REGIONAL WEATHER ROUNDUP
NATIONAL WEATHER SERVICE DETROIT/PONTIAC MI
1000 AM EDT FRI APR 28 2017

NOTE: "FAIR" INDICATES FEW OR NO CLOUDS BELOW 12,000 FEET WITH NO
SIGNIFICANT WEATHER AND/OR OBSTRUCTION TO VISIBILITY.

MIZ047>049-052>055-059>063-066>070-074>076-081>083-281500-
SOUTHEAST LOWER MICHIGAN

CITY           SKY/WX    TMP DP  RH WIND       PRES   REMARKS
ADRIAN         MOSUNNY   52  41  66 SW12      29.99F
ALMA           CLOUDY    48  38  68 SW14G21   29.93S
ANN ARBOR      SUNNY     52  43  71 S7        29.98R
BAD AXE        PTSUNNY   49  37  61 SW13      29.92S
CARO           MOSUNNY   50  39  64 SW17      29.93R
DETROIT CITY   MOSUNNY   52  39  61 SW8       30.01R
DETROIT        MOSUNNY   54  41  61 S12       30.01R
FLINT          CLOUDY    49  39  68 SW9G22    29.96R
GROSSE ILE     MOSUNNY   53  44  70 S14       30.01R
HILLSDALE      SUNNY     52  41  66 S9        29.97S
HOWELL         SUNNY     52  39  62 SW10      29.96F

CITY           SKY/WX    TMP DP  RH WIND       PRES   REMARKS
JACKSON        SUNNY     54  42  64 SW12      29.96F
LAMBERTVILLE   CLOUDY    52  41  65 S7        30.00F
LANSING        PTSUNNY   51  39  63 SW10      29.96R
LAPEER         CLOUDY    50  38  62 SW12      29.97R
MASON          MOSUNNY   52  43  71 SW8       29.96S
MONROE         MOSUNNY   55  41  60 S8        30.00F
MT. CLEMENS    PTSUNNY   55  41  59 SW12      29.99R
PONTIAC        MOSUNNY   51  39  63 SW10      29.97R
PORT HOPE        N/A     51  36  56 W13G24    29.89F
PORT HURON     MOSUNNY   54  36  50 SW10      29.98R
TRI CITIES     CLOUDY    49  38  65 SW18      29.93R
MIDLAND        PTSUNNY   51  37  57 SW16G22   29.91R
TROY           MOSUNNY   53  37  53 SW12      30.01R
SAGINAW HB     PTSUNNY   52  36  54 SW16      29.93R
$$
MIZ043>046-050>051-056>058-064>065-071>073-077>080-281500-
SOUTHWEST LOWER MICHIGAN

CITY           SKY/WX    TMP DP  RH WIND       PRES   REMARKS
BATTLE CREEK   SUNNY     52  43  71 SW16      29.96S
BENTON HARBOR  PTSUNNY   50  42  74 W5        29.97R
BIG RAPIDS     PTSUNNY   43  32  63 SW9       29.92R
COLDWATER      SUNNY     55  42  62 SW9       29.97S
FREMONT        PTSUNNY   45  33  62 SW5       29.93R
HOLLAND        CLOUDY    47  37  68 SW10      29.96R
GRAND RAPIDS   CLOUDY    47  39  74 SW12      29.95R
IONIA          CLOUDY    48  38  67 SW9       29.93F
KALAMAZOO      SUNNY     53  41  63 SW13      29.97R
LUDINGTON      CLOUDY    41  35  77 SW9       29.91S
MARSHALL       SUNNY     53  42  65 S10G17    29.96S
MOUNT PLEASANT SUNNY     47  33  58 SW18      29.91R
MUSKEGON       MOSUNNY   46  34  62 SW9       29.95R
SOUTH HAVEN    CLOUDY    47  40  76 SW5       29.97S
$$
MIZ016>042-281500-
NORTHERN LOWER MICHIGAN

CITY           SKY/WX    TMP DP  RH WIND       PRES   REMARKS
ALPENA         LGT RAIN  44  36  73 W9        29.86S
BEAVER ISLAND  CLOUDY    35  31  85 W16G23    29.85S WCI  25
BELLAIRE       CLOUDY    38  33  80 SW9       29.89R WCI  32
CADILLAC       CLOUDY    39  31  73 SW12G18   29.88R WCI  32
CHARLEVOIX     CLOUDY    35  35  99 W13G21    29.90R FOG     WCI  27
FRANKFORT      CLOUDY    39  32  76 W7        29.90R WCI  34
GAYLORD        CLOUDY    39  32  76 W21G28    29.84R WCI  29
GRAYLING       CLOUDY    38  34  84 SW6G18    29.88R WCI  34
HARBOR SPRINGS CLOUDY    35  34  96 W9        29.86R WCI  28
HOUGHTON LAKE  CLOUDY    41  32  70 W10       29.89R
MANISTEE       CLOUDY    40  32  73 W9        29.91R WCI  34
OSCODA         PTSUNNY   50  32  50 SW20G28   29.88S
PELLSTON       CLOUDY    36  32  85 W9        29.86R WCI  29
ROGERS CITY    CLOUDY    43  35  72 SW13G22   29.85F
TRAVERSE CITY  CLOUDY    40  32  73 SW9G18    29.88R WCI  34
$$
MIZ007>008-015-281500-
EASTERN UPPER MICHIGAN

CITY           SKY/WX    TMP DP  RH WIND       PRES   REMARKS
KINROSS        CLOUDY    34  28  79 W13       29.82R WCI  25
MACKINAC ISLAN CLOUDY    34  34 100 W8        29.83S FOG     WCI  27
NEWBERRY       CLOUDY    35  27  74 SW15G23   29.80R WCI  25
S. S. MARIE    CLOUDY    38  29  70 SW14G21   29.80S WCI  30
MUNISING         N/A     35  28  75 SW6       29.79R WCI  30
$$
MIZ004>006-011>014-085-281500-
CENTRAL UPPER MICHIGAN

CITY           SKY/WX    TMP DP  RH WIND       PRES   REMARKS
MANISTIQUE     CLOUDY    35  27  70 SW10      29.83R WCI  28
ESCANABA       CLOUDY    34  27  75 SW10G18   29.84R WCI  26
MENOMINEE      CLOUDY    35  26  69 W12G17    29.87R WCI  27
SAWYER-GWINN   CLOUDY    32  27  80 SW13G21   29.77R WCI  22
$$
MIZ001>003-009>011-084-281500-
WESTERN UPPER MICHIGAN

CITY           SKY/WX    TMP DP  RH WIND       PRES   REMARKS
IRON MOUNTAIN  CLOUDY    33  25  72 W9        29.78R WCI  25
HOUGHTON       MIX PCPN  32  23  69 W20       29.71R WCI  20
COPPER HARBOR    N/A     32  26  78 VRB6      29.72R WCI  26
IRONWOOD       CLOUDY    30  25  81 W13       29.80R WCI  20
$$

ABBREVIATIONS USED IN REMARKS
   TC - TEMPERATURE IN CELSIUS
  WCI - WIND CHILL INDEX
   HX - HEAT INDEX
  VSB - VISIBILITY





USA.gov is the U.S. government's official web portal to all federal, state and local government web resources and services.